| time (UTC) | temp C | wind direction | speed KPH | gust KPH | rain 1hr cm | rain 24hr cm | rain mn cm | humidity % | barometer mb |
| 20260505063640 | 13 | 145 | 0.0 | 0.0 | 0.00 | 0.00 | 0.00 | 60 | 1006.1 |
| 20260505063136 | 13 | 152 | 0.0 | 1.6 | 0.00 | 0.00 | 0.00 | 59 | 1006.1 |
| 20260505062632 | 13 | 129 | 1.6 | 1.6 | 0.00 | 0.00 | 0.00 | 59 | 1006.0 |
| 20260505062129 | 14 | 129 | 0.0 | 1.6 | 0.00 | 0.00 | 0.00 | 59 | 1006.0 |
| 20260505061626 | 13 | 130 | 3.2 | 3.2 | 0.00 | 0.00 | 0.00 | 59 | 1005.9 |
| 20260505061124 | 13 | 191 | 3.2 | 3.2 | 0.00 | 0.00 | 0.00 | 60 | 1005.9 |
| 20260505060622 | 13 | 149 | 0.0 | 0.0 | 0.00 | 0.00 | 0.00 | 60 | 1006.1 |
| 20260505060119 | 13 | 70 | 0.0 | 1.6 | 0.00 | 0.00 | 0.00 | 59 | 1006.0 |
| 20260505055614 | 13 | 146 | 1.6 | 1.6 | 0.00 | 0.00 | 0.00 | 59 | 1005.9 |
| 20260505055110 | 14 | 134 | 1.6 | 1.6 | 0.00 | 0.00 | 0.00 | 59 | 1006.0 |
| 20260505054608 | 14 | 116 | 1.6 | 1.6 | 0.00 | 0.00 | 0.00 | 58 | 1006.1 |
| 20260505054106 | 14 | 130 | 3.2 | 3.2 | 0.00 | 0.00 | 0.00 | 58 | 1006.1 |
| 20260505053603 | 14 | 137 | 1.6 | 1.6 | 0.00 | 0.00 | 0.00 | 57 | 1006.0 |
| 20260505053059 | 14 | 144 | 4.8 | 6.4 | 0.00 | 0.00 | 0.00 | 56 | 1006.2 |
| 20260505052556 | 15 | 125 | 0.0 | 1.6 | 0.00 | 0.00 | 0.00 | 57 | 1006.2 |
| 20260505052054 | 14 | 175 | 3.2 | 4.8 | 0.00 | 0.00 | 0.00 | 56 | 1006.0 |
| 20260505051551 | 14 | 144 | 0.0 | 1.6 | 0.00 | 0.00 | 0.00 | 57 | 1006.3 |
| 20260505051049 | 14 | 149 | 3.2 | 3.2 | 0.00 | 0.00 | 0.00 | 57 | 1006.1 |
| 20260505050546 | 14 | 140 | 1.6 | 3.2 | 0.00 | 0.00 | 0.00 | 58 | 1006.4 |
| 20260505041514 | 15 | 145 | 4.8 | 4.8 | 0.00 | 0.00 | 0.00 | 56 | 1006.4 |
| 20260505041012 | 15 | 138 | 0.0 | 1.6 | 0.00 | 0.00 | 0.00 | 55 | 1006.2 |
| 20260505040509 | 15 | 133 | 1.6 | 3.2 | 0.00 | 0.00 | 0.00 | 55 | 1006.1 |
| 20260505040006 | 15 | 126 | 1.6 | 3.2 | 0.00 | 0.00 | 0.00 | 56 | 1006.3 |
| 20260505035502 | 15 | 122 | 0.0 | 0.0 | 0.00 | 0.00 | 0.00 | 55 | 1006.3 |
| 20260505034959 | 15 | 128 | 3.2 | 3.2 | 0.00 | 0.00 | 0.00 | 55 | 1006.2 |
| 20260505034455 | 15 | 142 | 1.6 | 1.6 | 0.00 | 0.00 | 0.00 | 54 | 1006.2 |
| 20260505033952 | 15 | 146 | 1.6 | 3.2 | 0.00 | 0.00 | 0.00 | 54 | 1006.2 |
| 20260505033449 | 15 | 146 | 1.6 | 1.6 | 0.00 | 0.00 | 0.00 | 53 | 1006.2 |
| 20260505032948 | 15 | 147 | 3.2 | 3.2 | 0.00 | 0.00 | 0.00 | 52 | 1006.1 |
| 20260505032444 | 15 | 151 | 3.2 | 3.2 | 0.00 | 0.00 | 0.00 | 52 | 1006.1 |
| 20260505031940 | 15 | 108 | 3.2 | 3.2 | 0.00 | 0.00 | 0.00 | 52 | 1006.1 |
| 20260505031438 | 15 | 143 | 1.6 | 3.2 | 0.00 | 0.00 | 0.00 | 52 | 1006.2 |
| 20260505030935 | 15 | 170 | 1.6 | 1.6 | 0.00 | 0.00 | 0.00 | 52 | 1006.1 |
| 20260505030430 | 15 | 187 | 4.8 | 6.4 | 0.00 | 0.00 | 0.00 | 51 | 1006.0 |
| 20260505025926 | 15 | 145 | 1.6 | 1.6 | 0.00 | 0.00 | 0.00 | 51 | 1006.0 |
| 20260505025423 | 15 | 145 | 4.8 | 6.4 | 0.00 | 0.00 | 0.00 | 51 | 1006.3 |
| 20260505024922 | 15 | 106 | 0.0 | 0.0 | 0.00 | 0.00 | 0.00 | 51 | 1006.4 |
| 20260505024419 | 15 | 120 | 1.6 | 3.2 | 0.00 | 0.00 | 0.00 | 50 | 1006.3 |
| 20260505023916 | 16 | 170 | 0.0 | 1.6 | 0.00 | 0.00 | 0.00 | 50 | 1006.2 |
| 20260505023413 | 16 | 156 | 1.6 | 3.2 | 0.00 | 0.00 | 0.00 | 50 | 1006.4 |
| 20260505022910 | 16 | 178 | 1.6 | 1.6 | 0.00 | 0.00 | 0.00 | 50 | 1006.3 |
| 20260505022408 | 16 | 153 | 0.0 | 0.0 | 0.00 | 0.00 | 0.00 | 51 | 1006.7 |
| 20260505021905 | 16 | 172 | 0.0 | 0.0 | 0.00 | 0.00 | 0.00 | 50 | 1006.3 |
| 20260505021401 | 16 | 252 | 3.2 | 6.4 | 0.00 | 0.00 | 0.00 | 50 | 1006.4 |
| 20260505020857 | 15 | 87 | 3.2 | 4.8 | 0.00 | 0.00 | 0.00 | 50 | 1006.3 |
| 20260505020353 | 15 | 157 | 0.0 | 1.6 | 0.00 | 0.00 | 0.00 | 50 | 1006.3 |
| 20260505015850 | 16 | 153 | 1.6 | 1.6 | 0.00 | 0.00 | 0.00 | 49 | 1006.2 |
| 20260505015347 | 16 | 156 | 3.2 | 4.8 | 0.00 | 0.00 | 0.00 | 49 | 1006.3 |
| 20260505014844 | 16 | 138 | 0.0 | 0.0 | 0.00 | 0.00 | 0.00 | 49 | 1006.3 |
| 20260505014341 | 16 | 215 | 4.8 | 6.4 | 0.00 | 0.00 | 0.00 | 48 | 1006.3 |
| 20260505013838 | 16 | 125 | 3.2 | 4.8 | 0.00 | 0.00 | 0.00 | 49 | 1006.2 |
| 20260505013335 | 16 | 176 | 4.8 | 6.4 | 0.00 | 0.00 | 0.00 | 48 | 1006.3 |
| 20260505012833 | 16 | 172 | 0.0 | 0.0 | 0.00 | 0.00 | 0.00 | 49 | 1006.3 |
| 20260505012331 | 16 | 155 | 0.0 | 1.6 | 0.00 | 0.00 | 0.00 | 49 | 1006.3 |
| 20260505011826 | 16 | 177 | 0.0 | 1.6 | 0.00 | 0.00 | 0.00 | 48 | 1006.1 |
| 20260505011324 | 16 | 195 | 3.2 | 4.8 | 0.00 | 0.00 | 0.00 | 47 | 1006.1 |
| 20260505010819 | 16 | 198 | 1.6 | 3.2 | 0.00 | 0.00 | 0.00 | 49 | 1006.0 |
| 20260505010315 | 16 | 182 | 6.4 | 6.4 | 0.00 | 0.00 | 0.00 | 48 | 1006.0 |
| 20260505005812 | 16 | 57 | 3.2 | 3.2 | 0.00 | 0.00 | 0.00 | 48 | 1006.0 |
| 20260505005309 | 16 | 208 | 3.2 | 3.2 | 0.00 | 0.00 | 0.00 | 46 | 1006.0 |
| 20260505004806 | 17 | 99 | 1.6 | 1.6 | 0.00 | 0.00 | 0.00 | 46 | 1006.0 |
| 20260505004302 | 17 | 181 | 1.6 | 1.6 | 0.00 | 0.00 | 0.00 | 45 | 1005.8 |
| 20260505003800 | 17 | 117 | 0.0 | 3.2 | 0.00 | 0.00 | 0.00 | 45 | 1005.8 |
| 20260505003257 | 17 | 159 | 3.2 | 3.2 | 0.00 | 0.00 | 0.00 | 44 | 1005.8 |
| 20260505002753 | 17 | 127 | 0.0 | 1.6 | 0.00 | 0.00 | 0.00 | 43 | 1005.7 |
| 20260505002251 | 17 | 180 | 3.2 | 4.8 | 0.00 | 0.00 | 0.00 | 43 | 1005.7 |
| 20260505001748 | 17 | 159 | 0.0 | 1.6 | 0.00 | 0.00 | 0.00 | 43 | 1005.5 |
| 20260505001246 | 18 | 119 | 3.2 | 3.2 | 0.00 | 0.00 | 0.00 | 43 | 1005.6 |
| 20260505000742 | 18 | 143 | 1.6 | 3.2 | 0.00 | 0.00 | 0.00 | 42 | 1005.6 |
| 20260505000240 | 18 | 166 | 4.8 | 6.4 | 0.00 | 0.00 | 0.00 | 41 | 1005.5 |
| 20260504235737 | 18 | 35 | 3.2 | 4.8 | 0.00 | 0.00 | 0.00 | 40 | 1005.6 |
| 20260504235233 | 18 | 126 | 1.6 | 1.6 | 0.00 | 0.00 | 0.00 | 40 | 1005.6 |
| 20260504234730 | 19 | 191 | 6.4 | 11.3 | 0.00 | 0.00 | 0.00 | 39 | 1005.4 |
| 20260504234227 | 19 | 219 | 3.2 | 4.8 | 0.00 | 0.00 | 0.00 | 39 | 1005.4 |
| 20260504233724 | 20 | 162 | 1.6 | 1.6 | 0.00 | 0.00 | 0.00 | 39 | 1005.3 |
| 20260504233219 | 20 | 190 | 6.4 | 9.7 | 0.00 | 0.00 | 0.00 | 37 | 1005.1 |
| 20260504232717 | 20 | 136 | 3.2 | 3.2 | 0.00 | 0.00 | 0.00 | 38 | 1005.2 |
| 20260504232214 | 20 | 170 | 0.0 | 0.0 | 0.00 | 0.00 | 0.00 | 37 | 1005.0 |
| 20260504231710 | 21 | 184 | 3.2 | 6.4 | 0.00 | 0.00 | 0.00 | 36 | 1005.2 |
| 20260504231207 | 21 | 195 | 4.8 | 4.8 | 0.00 | 0.00 | 0.00 | 36 | 1005.2 |
| 20260504230703 | 21 | 173 | 3.2 | 3.2 | 0.00 | 0.00 | 0.00 | 35 | 1005.3 |
| 20260504230202 | 21 | 226 | 3.2 | 3.2 | 0.00 | 0.00 | 0.00 | 34 | 1005.2 |
| 20260504225700 | 21 | 159 | 1.6 | 3.2 | 0.00 | 0.00 | 0.00 | 32 | 1005.0 |
| 20260504225155 | 21 | 190 | 3.2 | 4.8 | 0.00 | 0.00 | 0.00 | 34 | 1005.2 |
| 20260504224653 | 21 | 237 | 6.4 | 6.4 | 0.00 | 0.00 | 0.00 | 33 | 1005.2 |
| 20260504224150 | 21 | 216 | 4.8 | 6.4 | 0.00 | 0.00 | 0.00 | 33 | 1005.2 |
| 20260504223647 | 21 | 196 | 3.2 | 3.2 | 0.00 | 0.00 | 0.00 | 34 | 1005.1 |
| 20260504223142 | 21 | 237 | 4.8 | 4.8 | 0.00 | 0.00 | 0.00 | 34 | 1005.2 |
| 20260504222640 | 21 | 269 | 4.8 | 9.7 | 0.00 | 0.00 | 0.00 | 32 | 1005.2 |
| 20260504222136 | 21 | 271 | 9.7 | 16.1 | 0.00 | 0.00 | 0.00 | 32 | 1005.1 |
| 20260504221634 | 21 | 165 | 4.8 | 4.8 | 0.00 | 0.00 | 0.00 | 33 | 1005.3 |
| 20260504221131 | 21 | 209 | 6.4 | 9.7 | 0.00 | 0.00 | 0.00 | 33 | 1005.2 |
| 20260504220627 | 21 | 173 | 3.2 | 3.2 | 0.00 | 0.00 | 0.00 | 35 | 1005.2 |
| 20260504220125 | 22 | 228 | 6.4 | 6.4 | 0.00 | 0.00 | 0.00 | 31 | 1005.4 |
| 20260504215621 | 21 | 182 | 0.0 | 0.0 | 0.00 | 0.00 | 0.00 | 36 | 1005.2 |
| 20260504215118 | 22 | 214 | 4.8 | 4.8 | 0.00 | 0.00 | 0.00 | 33 | 1005.1 |
| 20260504214614 | 22 | 155 | 11.3 | 14.5 | 0.00 | 0.00 | 0.00 | 31 | 1005.1 |
| 20260504214110 | 22 | 206 | 3.2 | 4.8 | 0.00 | 0.00 | 0.00 | 34 | 1005.2 |
| 20260504213607 | 22 | 242 | 9.7 | 14.5 | 0.00 | 0.00 | 0.00 | 32 | 1005.2 |
| 20260504213104 | 22 | 244 | 9.7 | 11.3 | 0.00 | 0.00 | 0.00 | 32 | 1005.2 |
| 20260504212600 | 21 | 185 | 3.2 | 4.8 | 0.00 | 0.00 | 0.00 | 33 | 1005.1 |
| 20260504212057 | 20 | 174 | 8.0 | 14.5 | 0.00 | 0.00 | 0.00 | 35 | 1005.2 |
| 20260504211554 | 21 | 147 | 3.2 | 3.2 | 0.00 | 0.00 | 0.00 | 37 | 1005.1 |
| 20260504211051 | 21 | 202 | 8.0 | 9.7 | 0.00 | 0.00 | 0.00 | 34 | 1005.4 |
| 20260504210549 | 21 | 124 | 1.6 | 1.6 | 0.00 | 0.00 | 0.00 | 35 | 1005.5 |
| 20260504210045 | 21 | 169 | 0.0 | 1.6 | 0.00 | 0.00 | 0.00 | 36 | 1005.4 |
| 20260504205543 | 22 | 216 | 4.8 | 6.4 | 0.00 | 0.00 | 0.00 | 35 | 1005.5 |
| 20260504205041 | 22 | 202 | 3.2 | 3.2 | 0.00 | 0.00 | 0.00 | 36 | 1005.5 |
| 20260504204538 | 22 | 239 | 8.0 | 11.3 | 0.00 | 0.00 | 0.00 | 35 | 1005.5 |
| 20260504204037 | 21 | 217 | 9.7 | 14.5 | 0.00 | 0.00 | 0.00 | 35 | 1005.4 |
| 20260504203535 | 21 | 164 | 1.6 | 3.2 | 0.00 | 0.00 | 0.00 | 41 | 1005.5 |
| 20260504203032 | 20 | 188 | 3.2 | 3.2 | 0.00 | 0.00 | 0.00 | 38 | 1005.7 |
| 20260504202527 | 21 | 138 | 11.3 | 16.1 | 0.00 | 0.00 | 0.00 | 36 | 1005.8 |
| 20260504202025 | 21 | 164 | 1.6 | 3.2 | 0.00 | 0.00 | 0.00 | 37 | 1005.7 |
| 20260504201521 | 21 | 127 | 4.8 | 6.4 | 0.00 | 0.00 | 0.00 | 39 | 1005.9 |
| 20260504201019 | 21 | 211 | 3.2 | 3.2 | 0.00 | 0.00 | 0.00 | 37 | 1005.8 |
| 20260504200515 | 21 | 236 | 4.8 | 6.4 | 0.00 | 0.00 | 0.00 | 34 | 1006.1 |
| 20260504200012 | 22 | 237 | 6.4 | 6.4 | 0.00 | 0.00 | 0.00 | 33 | 1006.1 |
| 20260504195508 | 21 | 258 | 11.3 | 16.1 | 0.00 | 0.00 | 0.00 | 34 | 1006.0 |
| 20260504195005 | 21 | 236 | 6.4 | 11.3 | 0.00 | 0.00 | 0.00 | 37 | 1006.2 |
| 20260504194501 | 20 | 194 | 3.2 | 4.8 | 0.00 | 0.00 | 0.00 | 38 | 1006.2 |
| 20260504193957 | 20 | 226 | 3.2 | 4.8 | 0.00 | 0.00 | 0.00 | 38 | 1006.2 |
| 20260504193454 | 20 | 186 | 4.8 | 6.4 | 0.00 | 0.00 | 0.00 | 37 | 1006.4 |
| 20260504192953 | 20 | 259 | 12.9 | 12.9 | 0.00 | 0.00 | 0.00 | 36 | 1006.4 |
| 20260504192450 | 20 | 221 | 4.8 | 4.8 | 0.00 | 0.00 | 0.00 | 38 | 1006.7 |
| 20260504191949 | 21 | 300 | 9.7 | 12.9 | 0.00 | 0.00 | 0.00 | 34 | 1006.4 |
| 20260504191446 | 20 | 271 | 9.7 | 12.9 | 0.00 | 0.00 | 0.00 | 37 | 1006.7 |
| 20260504190941 | 20 | 265 | 6.4 | 6.4 | 0.00 | 0.00 | 0.00 | 39 | 1006.5 |
| 20260504190437 | 21 | 240 | 9.7 | 11.3 | 0.00 | 0.00 | 0.00 | 38 | 1006.7 |
| 20260504185934 | 21 | 213 | 8.0 | 9.7 | 0.00 | 0.00 | 0.00 | 38 | 1006.8 |
| 20260504185432 | 21 | 91 | 4.8 | 6.4 | 0.00 | 0.00 | 0.00 | 39 | 1006.7 |
| 20260504184927 | 21 | 171 | 6.4 | 9.7 | 0.00 | 0.00 | 0.00 | 38 | 1006.9 |
| 20260504184423 | 21 | 317 | 8.0 | 12.9 | 0.00 | 0.00 | 0.00 | 39 | 1006.5 |
| 20260504183919 | 21 | 234 | 9.7 | 12.9 | 0.00 | 0.00 | 0.00 | 37 | 1006.7 |
| 20260504183417 | 21 | 181 | 4.8 | 11.3 | 0.00 | 0.00 | 0.00 | 37 | 1007.0 |
| 20260504182915 | 20 | 201 | 6.4 | 11.3 | 0.00 | 0.00 | 0.00 | 38 | 1006.8 |
| 20260504182411 | 20 | 142 | 6.4 | 11.3 | 0.00 | 0.00 | 0.00 | 38 | 1006.9 |
| 20260504181908 | 19 | 151 | 0.0 | 1.6 | 0.00 | 0.00 | 0.00 | 41 | 1006.8 |
| 20260504181406 | 19 | 244 | 6.4 | 9.7 | 0.00 | 0.00 | 0.00 | 43 | 1006.9 |
| 20260504180904 | 18 | 289 | 3.2 | 4.8 | 0.00 | 0.00 | 0.00 | 40 | 1007.1 |
| 20260504180403 | 19 | 249 | 6.4 | 9.7 | 0.00 | 0.00 | 0.00 | 41 | 1007.2 |
| 20260504175900 | 18 | 172 | 4.8 | 9.7 | 0.00 | 0.00 | 0.00 | 45 | 1006.9 |
| 20260504175357 | 18 | 243 | 11.3 | 12.9 | 0.00 | 0.00 | 0.00 | 39 | 1007.1 |
| 20260504174855 | 18 | 195 | 9.7 | 12.9 | 0.00 | 0.00 | 0.00 | 43 | 1007.2 |
| 20260504174352 | 18 | 132 | 3.2 | 4.8 | 0.00 | 0.00 | 0.00 | 43 | 1007.0 |
| 20260504173849 | 18 | 234 | 9.7 | 14.5 | 0.00 | 0.00 | 0.00 | 40 | 1007.2 |
| 20260504173345 | 18 | 191 | 8.0 | 9.7 | 0.00 | 0.00 | 0.00 | 40 | 1007.1 |
| 20260504172843 | 18 | 233 | 6.4 | 6.4 | 0.00 | 0.00 | 0.00 | 41 | 1007.2 |
| 20260504172339 | 18 | 195 | 3.2 | 9.7 | 0.00 | 0.00 | 0.00 | 44 | 1007.1 |
| 20260504171835 | 19 | 72 | 4.8 | 6.4 | 0.00 | 0.00 | 0.00 | 43 | 1007.4 |
| 20260504171332 | 18 | 208 | 12.9 | 16.1 | 0.00 | 0.00 | 0.00 | 40 | 1007.3 |
| 20260504170830 | 18 | 221 | 9.7 | 11.3 | 0.00 | 0.00 | 0.00 | 42 | 1007.4 |
| 20260504170326 | 18 | 134 | 8.0 | 11.3 | 0.00 | 0.00 | 0.00 | 41 | 1007.6 |
| 20260504160245 | 18 | 208 | 14.5 | 17.7 | 0.00 | 0.00 | 0.00 | 42 | 1008.2 |
| 20260504150710 | 16 | 259 | 12.9 | 14.5 | 0.00 | 0.00 | 0.00 | 44 | 1008.5 |
| 20260504150207 | 16 | 231 | 9.7 | 12.9 | 0.00 | 0.00 | 0.00 | 42 | 1008.8 |
| 20260504141136 | 13 | 137 | 3.2 | 4.8 | 0.00 | 0.00 | 0.00 | 49 | 1008.8 |
| 20260504140633 | 14 | 233 | 12.9 | 16.1 | 0.00 | 0.00 | 0.00 | 44 | 1008.8 |
| 20260504140128 | 13 | 318 | 4.8 | 9.7 | 0.00 | 0.00 | 0.00 | 49 | 1009.1 |
| 20260504130556 | 10 | 109 | 4.8 | 6.4 | 0.00 | 0.00 | 0.00 | 57 | 1009.7 |
| 20260504110444 | 6 | 117 | 3.2 | 6.4 | 0.00 | 0.00 | 0.00 | 64 | 1009.9 |
| 20260504100406 | 3 | 159 | 1.6 | 1.6 | 0.00 | 0.00 | 0.00 | 75 | 1009.7 |
| 20260504081800 | 5 | 124 | 0.0 | 0.0 | 0.00 | 0.00 | 0.00 | 67 | 1009.7 |
| 20260504081256 | 5 | 140 | 1.6 | 1.6 | 0.00 | 0.00 | 0.00 | 67 | 1009.9 |
| 20260504080753 | 5 | 128 | 1.6 | 1.6 | 0.00 | 0.00 | 0.00 | 67 | 1010.0 |
| 20260504080249 | 5 | 136 | 1.6 | 1.6 | 0.00 | 0.00 | 0.00 | 69 | 1009.8 |
| 20260504070217 | 5 | 136 | 1.6 | 1.6 | 0.00 | 0.00 | 0.00 | 65 | 1010.0 |